Location: Vigevano
(45.3170°N, 8.8500°E)
Time: 13:49:38
(UTC+01:00)

ISS - Visible Passes

Search period start: 22 November 2017 00:00
Search period end: 02 December 2017 00:00
Orbit: 402 x 407 km, 51.6° (Epoch: 22 November)

Date Brightness Start Highest point End Pass type
(mag) Time Alt. Az. Time Alt. Az. Time Alt. Az.
26 Nov -1.4 18:24:12 10° SSE 18:25:06 13° SSE 18:25:06 13° SSE visible
27 Nov -1.7 19:06:29 10° SW 19:07:52 22° SSW 19:07:52 22° SSW visible
28 Nov -2.7 18:14:32 10° SSW 18:17:26 29° SE 18:17:52 28° SE visible
29 Nov -1.8 17:23:04 10° S 17:25:15 17° SE 17:27:26 10° E visible
29 Nov -2.7 18:58:06 10° WSW 19:00:26 43° WSW 19:00:26 43° WSW visible
30 Nov -3.7 18:05:46 10° SW 18:09:00 63° SSE 18:10:16 33° ENE visible
30 Nov -0.4 19:42:37 10° W 19:42:55 12° W 19:42:55 12° W visible
01 Dec -2.8 17:13:40 10° SSW 17:16:42 35° SE 17:19:44 10° ENE visible
01 Dec -2.8 18:49:58 10° W 18:52:42 41° NW 18:52:42 41° NW visible
